SL-16 DEB, 22430

Orbit data source: Space-Track

SL-16 DEB, 22430 is space debris in LEO originally from a launch on Fri, 25 Dec 1992 UTC launched from the Tyuratam Missile And Space Complex (TTMTR). Debris objects in space refer to the collection of defunct objects orbiting the Earth. Examples of debris include non-operational satellites, rocket bodies, and fragments generated from explosions, collisions, or faulty payload assembly.

Loading next visibility...
Identifier
22430, 1992-093DX
Orbit
LEO
Country
Flag of CISCIS
Related business
Manufacturer
Unknown
Mission
Spacecraft
Bus & Motor
Unknown
Mass
Unknown
Launch date (UTC)
1992-12-25 (33 years ago)
Launch vehicle
Unknown
Launch site
Tyuratam Missile And Space Complex (TTMTR)
Object type
Payload
Rocket body
Debris
Shape & HBR
Unknown shape, 0.1 m
Radar Cross Section
Small (<0.1 m²)

Expand to show TLE details & history
Last TLE update: 11 hours ago

TLE from 11 hours ago
0 SL-16 DEB
1 22430U 92093DX  25296.16695936  .00000285  00000-0  22714-3 0  9997
2 22430  71.2377 342.0771 0113288  39.8081  21.7941 13.95957958667392
Epoch: 2025-10-23T04:00Z
TLE epoch observation values (Epoch: 2025-10-23T04:00:25.288Z)
Latitude
56.90771°
Longitude
-78.62796°
Altitude
840.307 km
Speed
7.477 km/s
True Right ascension
00h 53m 13s
True Declination
56° 45' 07"
Sunlit
Object was in full shadow at epoch
Visualization orbit readout
Latitude
Unknown
Longitude
Unknown
Altitude
Unknown
Speed
Unknown
Apparent Right ascension
Unknown
Apparent Declination
Unknown
Sunlit
N/A
Visualization observer readout
Local Sidereal Time
10:26:56
Azimuth
Unknown
Elevation
Unknown
Doppler factor
Unknown
Orbital elements
Apogee altitude
988.264 km
Perigee altitude
823.228 km
Semi-major axis
7,283.883 km
Eccentricity
0.01133
Inclination
71.2377°
RAAN
342.0771°
Arg. of periapsis
39.8081°
True anomaly
22.28249°
Mean anomaly
21.7941°
Eccentric anomaly
22.03765°
Mean motion
3.49139 °/min
Orbital period
103.11 mins
BSTAR
0.00022714
Loading maneuver chart data...
Computing Atmospheric mass density...

Documentation

Showing up to 5 results
|